QPF
0.03 0.03 0.04 0.06 0.09 0.12 0.18 0.20 0.18 0.14 0.11 0.10 0.07 0.06 0.07 0.08 0.09 0.09 0.08 0.09 0.07 0.06 0.07 0.05 0.05 0.05 0.04 0.06 0.05 0.04 0.03 0.02 0.01 0.02 0.02 0.01 0.00 0.01 0.01 0.01 0.01 0.01 0.01
0.03 0.03 0.05 0.06 0.07 0.10 0.16 0.20 0.20 0.18 0.14 0.11 0.08 0.07 0.09 0.10 0.10 0.11 0.11 0.09 0.08 0.06 0.05 0.06 0.06 0.06 0.06 0.06 0.06 0.05 0.04 0.02 0.01 0.02 0.02 0.02 0.01 0.01 0.00 0.00 0.00 0.00 0.01
0.02 0.03 0.03 0.06 0.05 0.07 0.13 0.16 0.16 0.19 0.17 0.16 0.14 0.11 0.12 0.10 0.08 0.09 0.09 0.08 0.06 0.05 0.05 0.06 0.07 0.06 0.04 0.05 0.05 0.04 0.04 0.03 0.02 0.02 0.02 0.02 0.01 0.00 0.00 0.00 0.00 0.00 0.01
0.01 0.02 0.03 0.05 0.05 0.05 0.10 0.14 0.17 0.18 0.18 0.16 0.13 0.11 0.10 0.09 0.08 0.09 0.08 0.07 0.06 0.06 0.05 0.06 0.06 0.06 0.04 0.04 0.03 0.03 0.03 0.03 0.03 0.03 0.01 0.01 0.01 0.00 0.00 0.00 0.00 0.00 0.00
0.01 0.02 0.04 0.05 0.07 0.08 0.11 0.17 0.18 0.19 0.17 0.16 0.14 0.12 0.11 0.12 0.12 0.10 0.07 0.07 0.06 0.06 0.04 0.04 0.05 0.05 0.05 0.04 0.03 0.03 0.02 0.02 0.03 0.02 0.01 0.01 0.01 0.01 0.01 0.01 0.01 0.01 0.00
0.02 0.03 0.04 0.06 0.07 0.08 0.11 0.16 0.15 0.17 0.15 0.14 0.14 0.13 0.11 0.11 0.11 0.08 0.06 0.05 0.04 0.04 0.03 0.03 0.04 0.05 0.05 0.04 0.03 0.02 0.02 0.02 0.02 0.02 0.01 0.01 0.01 0.01 0.01 0.01 0.01 0.01 0.00
0.02 0.04 0.06 0.06 0.04 0.04 0.06 0.09 0.14 0.15 0.12 0.11 0.12 0.12 0.11 0.12 0.12 0.09 0.07 0.06 0.04 0.03 0.04 0.03 0.04 0.04 0.04 0.03 0.02 0.02 0.01 0.01 0.01 0.02 0.01 0.01 0.01 0.01 0.02 0.02 0.01 0.01 0.00
0.01 0.03 0.07 0.09 0.06 0.05 0.04 0.05 0.11 0.14 0.10 0.09 0.10 0.13 0.10 0.11 0.10 0.09 0.07 0.05 0.04 0.05 0.07 0.06 0.04 0.03 0.02 0.02 0.02 0.02 0.02 0.01 0.02 0.01 0.01 0.01 0.01 0.02 0.02 0.02 0.02 0.01 0.00
0.01 0.01 0.03 0.07 0.08 0.06 0.05 0.04 0.09 0.11 0.08 0.08 0.09 0.11 0.09 0.10 0.09 0.08 0.06 0.05 0.05 0.05 0.07 0.05 0.03 0.03 0.02 0.02 0.02 0.02 0.02 0.02 0.02 0.01 0.02 0.02 0.02 0.01 0.01 0.01 0.01 0.01 0.00
0.00 0.01 0.01 0.03 0.05 0.05 0.05 0.05 0.07 0.09 0.08 0.06 0.07 0.07 0.07 0.08 0.08 0.07 0.05 0.04 0.04 0.04 0.05 0.04 0.03 0.02 0.01 0.01 0.02 0.02 0.02 0.03 0.02 0.02 0.02 0.02 0.01 0.01 0.01 0.00 0.00 0.00 0.00
0.00 0.00 0.01 0.01 0.02 0.02 0.03 0.03 0.04 0.07 0.07 0.07 0.07 0.07 0.06 0.06 0.06 0.05 0.05 0.04 0.05 0.04 0.04 0.02 0.02 0.02 0.02 0.02 0.02 0.02 0.03 0.03 0.02 0.01 0.01 0.01 0.01 0.01 0.00 0.00 0.00 0.00 0.00
0.00 0.00 0.01 0.01 0.01 0.01 0.01 0.02 0.02 0.04 0.05 0.05 0.06 0.07 0.06 0.05 0.05 0.04 0.04 0.04 0.04 0.03 0.04 0.04 0.03 0.02 0.02 0.02 0.03 0.02 0.02 0.03 0.02 0.01 0.01 0.00 0.00 0.00 0.00 0.00 0.00 0.00 0.00
0.00 0.00 0.01 0.01 0.01 0.01 0.01 0.01 0.01 0.03 0.04 0.05 0.05 0.05 0.04 0.03 0.02 0.02 0.02 0.03 0.03 0.03 0.03 0.03 0.02 0.02 0.02 0.02 0.03 0.02 0.02 0.02 0.02 0.02 0.01 0.01 0.00 0.00 0.00 0.00 0.00 0.00 0.00
0.00 0.00 0.00 0.01 0.01 0.01 0.02 0.02 0.02 0.03 0.04 0.05 0.05 0.04 0.03 0.02 0.02 0.02 0.02 0.02 0.03 0.04 0.04 0.03 0.03 0.03 0.02 0.02 0.02 0.02 0.02 0.02 0.01 0.01 0.01 0.01 0.01 0.01 0.01 0.01 0.01 0.01 0.01
0.00 0.00 0.00 0.01 0.01 0.01 0.02 0.02 0.02 0.02 0.03 0.04 0.04 0.03 0.03 0.03 0.03 0.03 0.02 0.02 0.02 0.03 0.04 0.05 0.05 0.04 0.03 0.02 0.01 0.01 0.01 0.02 0.02 0.01 0.01 0.01 0.01 0.01 0.01 0.01 0.01 0.01 0.01
0.00 0.00 0.00 0.00 0.00 0.01 0.01 0.02 0.02 0.02 0.03 0.04 0.04 0.04 0.03 0.03 0.02 0.02 0.03 0.03 0.03 0.04 0.04 0.04 0.04 0.04 0.02 0.01 0.01 0.01 0.01 0.01 0.02 0.02 0.02 0.01 0.00 0.00 0.01 0.00 0.00 0.00 0.01
0.00 0.00 0.00 0.00 0.01 0.01 0.02 0.02 0.03 0.03 0.04 0.04 0.04 0.03 0.03 0.02 0.02 0.02 0.04 0.04 0.03 0.03 0.03 0.03 0.03 0.02 0.02 0.02 0.02 0.01 0.01 0.01 0.01 0.01 0.02 0.01 0.00 0.00 0.00 0.00 0.00 0.01 0.02
0.00 0.00 0.00 0.01 0.02 0.02 0.02 0.02 0.02 0.03 0.04 0.04 0.04 0.04 0.04 0.03 0.03 0.03 0.04 0.03 0.03 0.03 0.03 0.04 0.03 0.03 0.02 0.02 0.02 0.02 0.01 0.01 0.01 0.01 0.02 0.02 0.02 0.01 0.01 0.01 0.01 0.01 0.01
0.00 0.00 0.00 0.01 0.02 0.03 0.02 0.02 0.02 0.03 0.05 0.04 0.03 0.03 0.04 0.03 0.02 0.02 0.04 0.04 0.04 0.04 0.03 0.03 0.03 0.02 0.02 0.02 0.02 0.02 0.01 0.01 0.01 0.01 0.02 0.02 0.02 0.03 0.03 0.02 0.02 0.02 0.02
0.01 0.01 0.01 0.01 0.02 0.02 0.02 0.03 0.04 0.04 0.06 0.07 0.06 0.05 0.05 0.04 0.04 0.05 0.05 0.06 0.05 0.05 0.05 0.05 0.05 0.05 0.05 0.06 0.06 0.04 0.02 0.02 0.02 0.03 0.04 0.04 0.05 0.04 0.04 0.04 0.03 0.02 0.02
0.01 0.01 0.01 0.01 0.02 0.02 0.03 0.04 0.04 0.04 0.05 0.07 0.08 0.08 0.07 0.06 0.07 0.08 0.08 0.08 0.06 0.05 0.06 0.07 0.07 0.08 0.09 0.08 0.07 0.06 0.05 0.05 0.05 0.06 0.06 0.05 0.05 0.04 0.03 0.03 0.02 0.02 0.02
0.02 0.01 0.01 0.01 0.02 0.03 0.03 0.03 0.03 0.05 0.05 0.05 0.06 0.06 0.06 0.07 0.07 0.07 0.09 0.09 0.07 0.06 0.06 0.05 0.05 0.05 0.05 0.06 0.06 0.05 0.05 0.04 0.04 0.04 0.04 0.05 0.04 0.03 0.03 0.03 0.02 0.02 0.02
0.03 0.02 0.02 0.02 0.02 0.05 0.05 0.06 0.05 0.05 0.04 0.04 0.05 0.06 0.07 0.08 0.08 0.09 0.09 0.10 0.09 0.08 0.07 0.06 0.06 0.06 0.05 0.05 0.05 0.04 0.04 0.04 0.03 0.02 0.03 0.03 0.04 0.04 0.03 0.03 0.03 0.02 0.02
0.03 0.02 0.02 0.02 0.03 0.06 0.07 0.08 0.07 0.05 0.04 0.04 0.04 0.05 0.07 0.08 0.08 0.09 0.11 0.11 0.11 0.11 0.11 0.11 0.10 0.09 0.09 0.08 0.07 0.06 0.05 0.05 0.05 0.05 0.05 0.05 0.05 0.04 0.03 0.03 0.03 0.03 0.03
0.03 0.02 0.02 0.02 0.02 0.03 0.04 0.05 0.05 0.04 0.04 0.04 0.05 0.05 0.05 0.05 0.05 0.05 0.06 0.07 0.08 0.08 0.08 0.08 0.09 0.09 0.09 0.09 0.09 0.08 0.07 0.06 0.07 0.07 0.06 0.05 0.05 0.05 0.05 0.05 0.06 0.06 0.07
0.03 0.03 0.02 0.02 0.02 0.02 0.02 0.03 0.04 0.04 0.05 0.05 0.04 0.03 0.03 0.03 0.03 0.03 0.04 0.05 0.06 0.06 0.06 0.06 0.05 0.06 0.06 0.06 0.05 0.05 0.05 0.05 0.06 0.06 0.06 0.07 0.07 0.07 0.07 0.08 0.08 0.07 0.06
MSLP
1007.62 1007.94 1008.20 1008.43 1008.66 1008.91 1009.22 1009.62 1010.12 1010.68 1011.29 1011.89 1012.47 1012.99 1013.44 1013.85 1014.23 1014.62 1015.04 1015.50 1016.01 1016.54 1017.07 1017.56 1017.99 1018.33 1018.59 1018.78 1018.92 1019.05 1019.17 1019.30 1019.46 1019.61 1019.75 1019.86 1019.92 1019.93 1019.90 1019.83 1019.77 1019.72 1019.73
1007.55 1007.82 1008.01 1008.15 1008.27 1008.43 1008.67 1009.02 1009.51 1010.10 1010.77 1011.47 1012.14 1012.75 1013.28 1013.72 1014.12 1014.50 1014.90 1015.34 1015.82 1016.34 1016.88 1017.40 1017.86 1018.24 1018.53 1018.75 1018.91 1019.04 1019.16 1019.29 1019.44 1019.61 1019.76 1019.89 1019.97 1019.99 1019.95 1019.87 1019.78 1019.69 1019.64
1007.41 1007.63 1007.76 1007.82 1007.85 1007.92 1008.08 1008.38 1008.85 1009.48 1010.22 1011.00 1011.78 1012.49 1013.10 1013.61 1014.04 1014.42 1014.79 1015.19 1015.65 1016.15 1016.68 1017.20 1017.68 1018.10 1018.43 1018.67 1018.85 1018.99 1019.12 1019.25 1019.40 1019.57 1019.73 1019.88 1019.98 1020.02 1020.00 1019.92 1019.82 1019.71 1019.64
1007.24 1007.44 1007.53 1007.53 1007.49 1007.48 1007.57 1007.82 1008.28 1008.92 1009.70 1010.57 1011.44 1012.25 1012.95 1013.52 1013.98 1014.36 1014.72 1015.08 1015.50 1015.96 1016.46 1016.98 1017.48 1017.91 1018.27 1018.55 1018.76 1018.91 1019.05 1019.18 1019.33 1019.50 1019.67 1019.83 1019.95 1020.02 1020.02 1019.97 1019.87 1019.77 1019.68
1007.09 1007.30 1007.38 1007.36 1007.28 1007.21 1007.24 1007.45 1007.88 1008.51 1009.32 1010.24 1011.17 1012.06 1012.83 1013.45 1013.94 1014.33 1014.67 1015.00 1015.36 1015.78 1016.26 1016.76 1017.25 1017.70 1018.09 1018.39 1018.62 1018.80 1018.94 1019.08 1019.23 1019.40 1019.58 1019.74 1019.88 1019.97 1020.00 1019.97 1019.90 1019.81 1019.73
1006.99 1007.24 1007.37 1007.36 1007.27 1007.18 1007.17 1007.33 1007.72 1008.33 1009.13 1010.05 1011.01 1011.93 1012.74 1013.41 1013.92 1014.31 1014.62 1014.92 1015.24 1015.62 1016.05 1016.53 1017.01 1017.47 1017.87 1018.20 1018.46 1018.65 1018.81 1018.95 1019.09 1019.25 1019.42 1019.59 1019.74 1019.85 1019.91 1019.91 1019.86 1019.80 1019.73
1006.94 1007.27 1007.47 1007.52 1007.46 1007.38 1007.36 1007.49 1007.82 1008.38 1009.13 1010.02 1010.96 1011.88 1012.70 1013.37 1013.88 1014.27 1014.57 1014.83 1015.12 1015.45 1015.85 1016.30 1016.77 1017.22 1017.64 1017.98 1018.26 1018.47 1018.63 1018.77 1018.91 1019.06 1019.21 1019.38 1019.53 1019.65 1019.73 1019.76 1019.75 1019.71 1019.67
1006.91 1007.35 1007.65 1007.79 1007.81 1007.77 1007.76 1007.86 1008.15 1008.64 1009.31 1010.13 1011.02 1011.89 1012.67 1013.32 1013.82 1014.19 1014.48 1014.72 1014.98 1015.28 1015.65 1016.07 1016.52 1016.97 1017.39 1017.75 1018.04 1018.26 1018.43 1018.56 1018.69 1018.82 1018.96 1019.11 1019.26 1019.39 1019.49 1019.55 1019.58 1019.57 1019.55
1006.85 1007.40 1007.82 1008.09 1008.21 1008.24 1008.27 1008.37 1008.61 1009.03 1009.62 1010.34 1011.13 1011.92 1012.65 1013.25 1013.73 1014.08 1014.35 1014.58 1014.82 1015.10 1015.45 1015.85 1016.29 1016.73 1017.15 1017.51 1017.80 1018.03 1018.20 1018.33 1018.44 1018.56 1018.68 1018.82 1018.96 1019.10 1019.22 1019.32 1019.37 1019.41 1019.42
1006.71 1007.36 1007.90 1008.29 1008.53 1008.67 1008.76 1008.88 1009.10 1009.46 1009.97 1010.59 1011.27 1011.96 1012.61 1013.15 1013.59 1013.92 1014.18 1014.40 1014.64 1014.91 1015.25 1015.64 1016.06 1016.49 1016.91 1017.27 1017.57 1017.79 1017.96 1018.09 1018.20 1018.30 1018.41 1018.55 1018.69 1018.84 1018.98 1019.10 1019.19 1019.26 1019.30
1006.44 1007.16 1007.80 1008.31 1008.67 1008.91 1009.09 1009.26 1009.49 1009.82 1010.26 1010.79 1011.37 1011.97 1012.52 1013.00 1013.39 1013.70 1013.96 1014.18 1014.42 1014.70 1015.03 1015.42 1015.83 1016.26 1016.67 1017.03 1017.32 1017.56 1017.73 1017.86 1017.96 1018.07 1018.18 1018.31 1018.46 1018.62 1018.78 1018.93 1019.05 1019.15 1019.21
1006.04 1006.80 1007.49 1008.08 1008.54 1008.89 1009.16 1009.40 1009.67 1010.00 1010.40 1010.87 1011.38 1011.89 1012.37 1012.79 1013.14 1013.43 1013.68 1013.91 1014.16 1014.45 1014.79 1015.17 1015.59 1016.01 1016.41 1016.77 1017.07 1017.31 1017.49 1017.63 1017.75 1017.86 1017.98 1018.12 1018.28 1018.46 1018.63 1018.80 1018.95 1019.06 1019.15
1005.57 1006.29 1006.98 1007.61 1008.13 1008.56 1008.92 1009.25 1009.57 1009.93 1010.34 1010.78 1011.24 1011.70 1012.12 1012.50 1012.82 1013.09 1013.34 1013.58 1013.84 1014.14 1014.49 1014.88 1015.30 1015.71 1016.11 1016.47 1016.78 1017.02 1017.22 1017.38 1017.52 1017.65 1017.79 1017.95 1018.12 1018.31 1018.50 1018.67 1018.83 1018.96 1019.04
1005.07 1005.70 1006.34 1006.94 1007.48 1007.95 1008.39 1008.79 1009.19 1009.61 1010.04 1010.49 1010.94 1011.36 1011.76 1012.10 1012.40 1012.67 1012.91 1013.17 1013.44 1013.76 1014.12 1014.51 1014.93 1015.35 1015.74 1016.10 1016.42 1016.68 1016.89 1017.07 1017.24 1017.39 1017.56 1017.73 1017.92 1018.11 1018.30 1018.48 1018.63 1018.75 1018.83
1004.65 1005.13 1005.65 1006.16 1006.67 1007.15 1007.62 1008.09 1008.56 1009.04 1009.52 1010.00 1010.46 1010.89 1011.27 1011.60 1011.89 1012.15 1012.40 1012.66 1012.95 1013.28 1013.65 1014.05 1014.47 1014.89 1015.29 1015.65 1015.97 1016.24 1016.48 1016.68 1016.86 1017.05 1017.23 1017.42 1017.61 1017.80 1017.99 1018.15 1018.28 1018.38 1018.44
1004.38 1004.68 1005.03 1005.41 1005.83 1006.27 1006.74 1007.24 1007.76 1008.30 1008.84 1009.36 1009.84 1010.28 1010.67 1010.99 1011.28 1011.54 1011.80 1012.08 1012.38 1012.72 1013.10 1013.51 1013.93 1014.35 1014.74 1015.11 1015.43 1015.71 1015.95 1016.17 1016.38 1016.57 1016.77 1016.96 1017.15 1017.33 1017.49 1017.63 1017.73 1017.80 1017.83
1004.33 1004.44 1004.59 1004.81 1005.09 1005.45 1005.88 1006.38 1006.92 1007.50 1008.08 1008.63 1009.15 1009.60 1009.99 1010.32 1010.61 1010.88 1011.15 1011.43 1011.75 1012.10 1012.49 1012.91 1013.34 1013.75 1014.14 1014.50 1014.82 1015.10 1015.34 1015.56 1015.77 1015.97 1016.16 1016.35 1016.52 1016.68 1016.82 1016.92 1016.99 1017.03 1017.03
1004.55 1004.47 1004.43 1004.47 1004.60 1004.85 1005.20 1005.65 1006.19 1006.77 1007.36 1007.93 1008.46 1008.92 1009.31 1009.65 1009.94 1010.21 1010.48 1010.78 1011.11 1011.48 1011.89 1012.31 1012.74 1013.15 1013.54 1013.88 1014.19 1014.45 1014.68 1014.89 1015.08 1015.26 1015.44 1015.60 1015.76 1015.89 1016.00 1016.07 1016.11 1016.12 1016.10
1005.06 1004.82 1004.61 1004.48 1004.45 1004.57 1004.82 1005.20 1005.69 1006.24 1006.81 1007.37 1007.88 1008.34 1008.72 1009.05 1009.33 1009.61 1009.89 1010.20 1010.54 1010.93 1011.35 1011.78 1012.21 1012.62 1012.99 1013.32 1013.60 1013.83 1014.03 1014.20 1014.36 1014.51 1014.66 1014.79 1014.92 1015.03 1015.10 1015.15 1015.18 1015.18 1015.16
1005.82 1005.47 1005.13 1004.86 1004.70 1004.69 1004.83 1005.12 1005.53 1006.01 1006.53 1007.04 1007.52 1007.94 1008.29 1008.60 1008.87 1009.14 1009.42 1009.74 1010.11 1010.51 1010.94 1011.39 1011.82 1012.22 1012.57 1012.87 1013.11 1013.30 1013.44 1013.57 1013.68 1013.78 1013.88 1013.99 1014.08 1014.16 1014.23 1014.27 1014.29 1014.29 1014.29
1006.81 1006.40 1005.99 1005.62 1005.35 1005.23 1005.27 1005.45 1005.76 1006.16 1006.59 1007.03 1007.43 1007.79 1008.10 1008.36 1008.61 1008.87 1009.15 1009.48 1009.85 1010.27 1010.72 1011.17 1011.59 1011.98 1012.30 1012.56 1012.75 1012.88 1012.97 1013.03 1013.07 1013.12 1013.17 1013.24 1013.30 1013.37 1013.43 1013.48 1013.51 1013.54 1013.56
1007.97 1007.56 1007.12 1006.70 1006.37 1006.16 1006.10 1006.18 1006.39 1006.68 1007.01 1007.34 1007.65 1007.93 1008.17 1008.38 1008.59 1008.82 1009.09 1009.42 1009.80 1010.23 1010.68 1011.13 1011.55 1011.91 1012.20 1012.40 1012.53 1012.59 1012.61 1012.59 1012.57 1012.55 1012.55 1012.57 1012.61 1012.67 1012.73 1012.80 1012.86 1012.92 1012.98
1009.24 1008.87 1008.44 1008.01 1007.65 1007.40 1007.27 1007.26 1007.36 1007.53 1007.75 1007.97 1008.17 1008.35 1008.50 1008.65 1008.81 1009.01 1009.26 1009.57 1009.95 1010.37 1010.82 1011.25 1011.65 1011.97 1012.21 1012.36 1012.42 1012.41 1012.34 1012.25 1012.15 1012.07 1012.01 1012.00 1012.02 1012.06 1012.14 1012.22 1012.31 1012.40 1012.49
1010.55 1010.24 1009.86 1009.46 1009.10 1008.82 1008.64 1008.56 1008.57 1008.64 1008.73 1008.83 1008.92 1009.00 1009.06 1009.13 1009.23 1009.39 1009.61 1009.90 1010.26 1010.66 1011.08 1011.48 1011.84 1012.12 1012.31 1012.39 1012.38 1012.29 1012.14 1011.97 1011.80 1011.66 1011.55 1011.50 1011.49 1011.53 1011.61 1011.70 1011.82 1011.93 1012.04
1011.82 1011.58 1011.26 1010.92 1010.59 1010.32 1010.11 1009.98 1009.90 1009.87 1009.86 1009.85 1009.83 1009.80 1009.77 1009.77 1009.81 1009.91 1010.09 1010.35 1010.67 1011.03 1011.41 1011.77 1012.08 1012.30 1012.42 1012.44 1012.36 1012.19 1011.97 1011.73 1011.50 1011.30 1011.15 1011.05 1011.02 1011.05 1011.12 1011.22 1011.33 1011.45 1011.56
1012.98 1012.81 1012.57 1012.28 1012.00 1011.75 1011.53 1011.36 1011.23 1011.12 1011.01 1010.90 1010.78 1010.67 1010.56 1010.49 1010.47 1010.53 1010.66 1010.87 1011.14 1011.45 1011.78 1012.08 1012.31 1012.47 1012.52 1012.47 1012.32 1012.09 1011.82 1011.52 1011.24 1010.99 1010.80 1010.68 1010.62 1010.62 1010.67 1010.75 1010.85 1010.94 1011.03
Thickness
5777 5773 5768 5763 5758 5753 5749 5745 5741 5739 5737 5735 5734 5733 5733 5733 5733 5733 5732 5731 5731 5730 5729 5729 5726 5726 5727 5727 5727 5726 5724 5726 5726 5726 5724 5726 5727 5727 5726 5726 5726 5725 5723
5772 5767 5763 5758 5754 5750 5746 5743 5740 5738 5736 5735 5734 5733 5733 5732 5731 5731 5730 5730 5729 5728 5729 5728 5727 5726 5725 5725 5724 5724 5725 5726 5726 5725 5723 5720 5722 5723 5727 5726 5725 5725 5724
5769 5763 5759 5755 5752 5747 5744 5741 5738 5736 5734 5733 5731 5730 5728 5727 5727 5728 5728 5728 5728 5727 5728 5727 5727 5725 5726 5725 5724 5723 5723 5723 5725 5726 5725 5721 5721 5724 5725 5724 5725 5723 5723
5770 5764 5759 5754 5751 5748 5744 5740 5736 5734 5732 5730 5729 5728 5727 5726 5727 5727 5728 5727 5726 5726 5725 5725 5725 5724 5726 5724 5724 5725 5724 5723 5724 5724 5724 5726 5727 5722 5722 5722 5724 5723 5721
5770 5764 5760 5755 5751 5748 5743 5739 5735 5732 5731 5729 5729 5727 5727 5727 5727 5726 5725 5725 5725 5725 5724 5724 5724 5723 5725 5724 5723 5723 5723 5725 5725 5725 5725 5724 5723 5724 5722 5720 5721 5722 5723
5770 5765 5761 5757 5752 5748 5744 5740 5734 5730 5728 5727 5727 5726 5726 5725 5724 5723 5723 5723 5724 5724 5723 5723 5723 5723 5724 5722 5722 5722 5722 5724 5724 5725 5726 5725 5724 5723 5724 5720 5718 5719 5722
5769 5763 5759 5754 5751 5747 5743 5739 5733 5728 5727 5726 5725 5725 5725 5725 5724 5723 5722 5723 5723 5723 5722 5724 5722 5722 5721 5721 5722 5721 5723 5722 5721 5721 5724 5726 5726 5727 5725 5722 5720 5719 5721
5769 5764 5759 5755 5751 5746 5742 5737 5732 5728 5726 5725 5724 5725 5725 5725 5725 5724 5724 5723 5724 5725 5723 5722 5721 5721 5721 5722 5720 5722 5721 5720 5720 5721 5721 5722 5724 5724 5723 5721 5718 5715 5717
5768 5764 5760 5756 5752 5747 5742 5738 5733 5729 5727 5726 5725 5724 5725 5725 5726 5726 5725 5725 5725 5725 5723 5721 5720 5720 5720 5720 5720 5721 5719 5719 5720 5720 5719 5720 5722 5720 5720 5720 5718 5714 5712
5770 5765 5761 5756 5752 5748 5744 5741 5737 5732 5729 5728 5726 5726 5725 5726 5726 5726 5725 5726 5725 5724 5722 5721 5720 5720 5719 5719 5719 5719 5719 5718 5718 5718 5717 5716 5719 5718 5717 5717 5716 5715 5712
5771 5767 5763 5759 5754 5750 5745 5741 5738 5734 5731 5730 5728 5728 5727 5727 5727 5726 5726 5725 5724 5723 5722 5721 5720 5720 5719 5719 5718 5720 5718 5716 5716 5716 5714 5713 5713 5714 5714 5713 5712 5710 5709
5773 5769 5764 5760 5755 5750 5746 5742 5740 5737 5735 5733 5731 5729 5729 5728 5727 5727 5726 5725 5724 5723 5723 5722 5721 5720 5719 5718 5717 5717 5717 5716 5715 5714 5712 5711 5711 5708 5709 5708 5707 5706 5705
5771 5768 5763 5759 5755 5752 5748 5745 5742 5740 5739 5736 5733 5731 5729 5728 5727 5727 5727 5726 5724 5724 5723 5722 5720 5720 5719 5718 5717 5717 5716 5715 5714 5713 5710 5709 5707 5704 5705 5702 5703 5703 5702
5767 5764 5760 5757 5755 5753 5750 5747 5745 5744 5742 5739 5736 5732 5731 5730 5729 5728 5727 5726 5725 5724 5723 5721 5720 5719 5718 5717 5716 5715 5714 5713 5712 5711 5709 5707 5705 5702 5700 5699 5697 5697 5695
5762 5761 5758 5757 5755 5753 5751 5749 5748 5746 5744 5740 5738 5735 5733 5732 5731 5729 5728 5727 5725 5725 5723 5722 5720 5719 5717 5717 5715 5713 5712 5710 5709 5708 5706 5705 5703 5701 5698 5697 5696 5693 5690
5759 5758 5757 5755 5754 5753 5752 5750 5749 5747 5745 5741 5738 5737 5735 5733 5731 5730 5729 5727 5726 5725 5723 5721 5720 5718 5718 5715 5711 5710 5710 5708 5707 5705 5704 5702 5698 5695 5691 5689 5687 5685 5684
5756 5755 5755 5754 5754 5754 5754 5751 5750 5748 5744 5741 5740 5738 5736 5734 5732 5731 5729 5727 5725 5724 5721 5720 5718 5716 5714 5711 5707 5704 5705 5706 5704 5702 5700 5699 5700 5693 5691 5685 5680 5678 5675
5750 5751 5752 5753 5753 5754 5753 5752 5750 5747 5744 5741 5740 5738 5735 5733 5731 5730 5728 5726 5724 5722 5719 5717 5716 5714 5712 5707 5703 5700 5699 5701 5700 5698 5696 5693 5692 5689 5685 5683 5681 5678 5675
5742 5745 5748 5750 5750 5750 5750 5749 5747 5745 5741 5739 5737 5737 5735 5732 5729 5727 5725 5723 5721 5718 5716 5715 5713 5711 5709 5703 5699 5695 5695 5695 5694 5693 5691 5689 5686 5682 5676 5674 5673 5672 5671
5734 5738 5742 5743 5743 5744 5746 5743 5741 5739 5736 5736 5735 5734 5732 5729 5726 5723 5721 5719 5717 5715 5713 5711 5709 5707 5704 5699 5694 5688 5690 5690 5689 5687 5685 5680 5677 5673 5668 5665 5665 5663 5663
5723 5728 5730 5731 5733 5736 5737 5735 5733 5731 5731 5730 5729 5727 5726 5723 5721 5719 5717 5714 5712 5709 5707 5705 5702 5700 5697 5692 5687 5682 5684 5685 5683 5681 5680 5678 5670 5664 5659 5656 5656 5655 5651
5712 5715 5717 5718 5721 5725 5726 5724 5723 5723 5723 5722 5720 5718 5717 5716 5714 5711 5709 5707 5704 5701 5698 5695 5693 5692 5689 5684 5680 5675 5672 5672 5672 5672 5671 5668 5661 5655 5650 5647 5646 5642 5638
5700 5703 5705 5705 5707 5710 5712 5711 5711 5713 5713 5712 5710 5708 5706 5705 5704 5702 5699 5697 5694 5692 5689 5686 5684 5682 5680 5676 5670 5666 5662 5659 5659 5661 5656 5652 5647 5644 5642 5638 5634 5630 5630
5688 5690 5692 5693 5693 5696 5698 5700 5701 5702 5702 5700 5698 5696 5694 5693 5691 5690 5688 5686 5684 5681 5678 5676 5674 5671 5668 5665 5662 5659 5655 5649 5647 5647 5644 5638 5636 5633 5632 5630 5627 5624 5623
5675 5677 5678 5679 5679 5682 5684 5686 5688 5690 5688 5687 5686 5684 5683 5681 5677 5675 5673 5672 5667 5667 5666 5665 5663 5660 5656 5648 5644 5644 5643 5641 5637 5635 5635 5634 5631 5628 5625 5623 5620 5617 5613
5662 5663 5664 5666 5667 5669 5671 5673 5675 5676 5676 5674 5673 5673 5672 5669 5668 5665 5659 5651 5651 5648 5646 5644 5644 5642 5636 5632 5631 5628 5626 5623 5621 5621 5624 5622 5619 5617 5614 5611 5608 5605 5601